TimePDT,TemperatureF,Dew PointF,Humidity,Sea Level PressureIn,VisibilityMPH,Wind Direction,Wind SpeedMPH,Gust SpeedMPH,PrecipitationIn,Events,Conditions,WindDirDegrees,DateUTC
12:10 AM,68.0,48.2,49,29.84,10.0,Calm,Calm,-,N/A,,Clear,0,2013-09-07 07:10:00
12:30 AM,66.2,48.2,52,29.85,10.0,Calm,Calm,-,N/A,,Clear,0,2013-09-07 07:30:00
12:50 AM,64.4,48.2,56,29.85,10.0,Calm,Calm,-,N/A,,Clear,0,2013-09-07 07:50:00
1:10 AM,64.4,50.0,59,29.85,10.0,Calm,Calm,-,N/A,,Clear,0,2013-09-07 08:10:00
1:30 AM,64.4,50.0,59,29.85,10.0,ENE,3.5,-,N/A,,Clear,70,2013-09-07 08:30:00
1:50 AM,64.4,50.0,59,29.85,10.0,Calm,Calm,-,N/A,,Clear,0,2013-09-07 08:50:00
2:10 AM,66.2,51.8,60,29.85,10.0,SSE,3.5,-,N/A,,Clear,150,2013-09-07 09:10:00
2:30 AM,64.4,50.0,59,29.85,10.0,SE,4.6,-,N/A,,Clear,130,2013-09-07 09:30:00
2:50 AM,66.2,51.8,60,29.84,10.0,ESE,4.6,-,N/A,,Clear,120,2013-09-07 09:50:00
3:10 AM,64.4,50.0,59,29.85,10.0,Calm,Calm,-,N/A,,Clear,0,2013-09-07 10:10:00
3:30 AM,64.4,48.2,56,29.84,10.0,East,3.5,-,N/A,,Clear,90,2013-09-07 10:30:00
3:50 AM,62.6,50.0,63,29.85,10.0,Calm,Calm,-,N/A,,Clear,0,2013-09-07 10:50:00
4:10 AM,64.4,48.2,56,29.84,10.0,Calm,Calm,-,N/A,,Clear,0,2013-09-07 11:10:00
4:30 AM,60.8,50.0,68,29.84,10.0,Calm,Calm,-,N/A,,Clear,0,2013-09-07 11:30:00
4:50 AM,60.8,50.0,68,29.84,10.0,Calm,Calm,-,N/A,,Clear,0,2013-09-07 11:50:00
5:10 AM,59.0,50.0,72,29.84,10.0,Calm,Calm,-,N/A,,Clear,0,2013-09-07 12:10:00
5:30 AM,59.0,50.0,72,29.85,10.0,Calm,Calm,-,N/A,,Clear,0,2013-09-07 12:30:00
5:50 AM,60.8,50.0,68,29.85,10.0,Calm,Calm,-,N/A,,Clear,0,2013-09-07 12:50:00
6:10 AM,59.0,48.2,67,29.85,10.0,Calm,Calm,-,N/A,,Clear,0,2013-09-07 13:10:00
6:30 AM,59.0,50.0,72,29.86,10.0,Calm,Calm,-,N/A,,Clear,0,2013-09-07 13:30:00
6:50 AM,60.8,50.0,68,29.86,10.0,Calm,Calm,-,N/A,,Clear,0,2013-09-07 13:50:00
7:10 AM,59.0,50.0,72,29.86,10.0,Calm,Calm,-,N/A,,Clear,0,2013-09-07 14:10:00
7:30 AM,64.4,50.0,59,29.87,8.0,Calm,Calm,-,N/A,,Unknown,0,2013-09-07 14:30:00
7:50 AM,66.2,50.0,56,29.88,9.0,Calm,Calm,-,N/A,,Clear,0,2013-09-07 14:50:00
8:10 AM,68.0,46.4,46,29.88,10.0,Calm,Calm,-,N/A,,Clear,0,2013-09-07 15:10:00
8:30 AM,71.6,46.4,41,29.88,10.0,Calm,Calm,-,N/A,,Clear,0,2013-09-07 15:30:00
8:50 AM,71.6,46.4,41,29.88,9.0,Calm,Calm,-,N/A,,Clear,0,2013-09-07 15:50:00
9:10 AM,73.4,46.4,38,29.89,10.0,Calm,Calm,-,N/A,,Clear,0,2013-09-07 16:10:00
9:30 AM,75.2,44.6,34,29.89,9.0,Calm,Calm,-,N/A,,Clear,0,2013-09-07 16:30:00
9:50 AM,78.8,44.6,30,29.89,10.0,Calm,Calm,-,N/A,,Clear,0,2013-09-07 16:50:00
10:10 AM,80.6,42.8,26,29.89,9.0,Calm,Calm,-,N/A,,Clear,0,2013-09-07 17:10:00
10:30 AM,82.4,39.2,21,29.89,7.0,Calm,Calm,-,N/A,,Clear,0,2013-09-07 17:30:00
10:50 AM,82.4,41.0,23,29.88,5.0,Calm,Calm,-,N/A,,Haze,0,2013-09-07 17:50:00
11:10 AM,84.2,44.6,25,29.88,9.0,SW,5.8,-,N/A,,Clear,230,2013-09-07 18:10:00
11:30 AM,86.0,42.8,22,29.88,7.0,Calm,Calm,-,N/A,,Clear,0,2013-09-07 18:30:00
11:50 AM,87.8,39.2,18,29.87,6.0,Calm,Calm,-,N/A,,Haze,0,2013-09-07 18:50:00
12:10 PM,89.6,39.2,17,29.87,5.0,SW,3.5,-,N/A,,Haze,230,2013-09-07 19:10:00
12:30 PM,91.4,39.2,16,29.87,7.0,Calm,Calm,-,N/A,,Clear,0,2013-09-07 19:30:00
12:50 PM,91.4,39.2,16,29.86,5.0,Calm,Calm,-,N/A,,Haze,0,2013-09-07 19:50:00
1:10 PM,91.4,37.4,15,29.85,5.0,SSW,3.5,-,N/A,,Haze,200,2013-09-07 20:10:00
1:30 PM,93.2,37.4,14,29.85,5.0,South,5.8,-,N/A,,Haze,180,2013-09-07 20:30:00
1:50 PM,93.2,37.4,14,29.84,5.0,WSW,4.6,-,N/A,,Haze,240,2013-09-07 20:50:00
2:10 PM,93.2,35.6,13,29.83,8.0,WSW,6.9,-,N/A,,Clear,240,2013-09-07 21:10:00
2:30 PM,93.2,35.6,13,29.82,8.0,West,3.5,-,N/A,,Clear,260,2013-09-07 21:30:00
2:50 PM,95.0,37.4,13,29.82,6.0,SSW,4.6,-,N/A,,Haze,210,2013-09-07 21:50:00
3:10 PM,95.0,39.2,14,29.81,8.0,South,4.6,-,N/A,,Clear,190,2013-09-07 22:10:00
3:30 PM,95.0,39.2,14,29.81,9.0,SW,3.5,-,N/A,,Clear,230,2013-09-07 22:30:00
3:50 PM,95.0,39.2,14,29.80,9.0,SW,5.8,-,N/A,,Clear,230,2013-09-07 22:50:00
4:10 PM,95.0,39.2,14,29.79,9.0,SW,5.8,-,N/A,,Clear,220,2013-09-07 23:10:00
4:30 PM,95.0,39.2,14,29.79,9.0,NW,3.5,-,N/A,,Clear,310,2013-09-07 23:30:00
4:50 PM,95.0,41.0,15,29.78,9.0,WSW,6.9,-,N/A,,Clear,240,2013-09-07 23:50:00
5:10 PM,95.0,39.2,14,29.78,9.0,West,5.8,-,N/A,,Clear,260,2013-09-08 00:10:00
5:30 PM,95.0,39.2,14,29.78,10.0,SSW,5.8,-,N/A,,Clear,210,2013-09-08 00:30:00
5:50 PM,95.0,39.2,14,29.78,10.0,WSW,5.8,-,N/A,,Clear,240,2013-09-08 00:50:00
6:10 PM,95.0,39.2,14,29.78,8.0,Calm,Calm,-,N/A,,Clear,0,2013-09-08 01:10:00
6:30 PM,95.0,37.4,13,29.78,10.0,West,6.9,-,N/A,,Clear,260,2013-09-08 01:30:00
6:50 PM,93.2,37.4,14,29.77,10.0,SW,4.6,-,N/A,,Clear,220,2013-09-08 01:50:00
7:10 PM,91.4,39.2,16,29.77,10.0,Calm,Calm,-,N/A,,Clear,0,2013-09-08 02:10:00
7:30 PM,89.6,39.2,17,29.78,10.0,South,3.5,-,N/A,,Clear,190,2013-09-08 02:30:00
7:50 PM,87.8,39.2,18,29.78,10.0,Calm,Calm,-,N/A,,Clear,0,2013-09-08 02:50:00
8:10 PM,84.2,39.2,20,29.79,10.0,Calm,Calm,-,N/A,,Clear,0,2013-09-08 03:10:00
8:30 PM,84.2,41.0,22,29.80,10.0,Calm,Calm,-,N/A,,Clear,0,2013-09-08 03:30:00
8:50 PM,82.4,41.0,23,29.80,10.0,Calm,Calm,-,N/A,,Clear,0,2013-09-08 03:50:00
9:10 PM,80.6,41.0,24,29.80,10.0,Calm,Calm,-,N/A,,Clear,0,2013-09-08 04:10:00
9:30 PM,80.6,41.0,24,29.81,10.0,Calm,Calm,-,N/A,,Clear,0,2013-09-08 04:30:00
9:50 PM,82.4,46.4,28,29.81,10.0,South,3.5,-,N/A,,Clear,180,2013-09-08 04:50:00
10:10 PM,80.6,46.4,30,29.82,10.0,SE,4.6,-,N/A,,Clear,130,2013-09-08 05:10:00
10:30 PM,80.6,48.2,32,29.82,10.0,ESE,4.6,-,N/A,,Clear,110,2013-09-08 05:30:00
10:50 PM,78.8,48.2,34,29.82,10.0,Calm,Calm,-,N/A,,Clear,0,2013-09-08 05:50:00
11:10 PM,75.2,48.2,38,29.82,10.0,SE,3.5,-,N/A,,Clear,130,2013-09-08 06:10:00
11:30 PM,73.4,48.2,41,29.82,10.0,Calm,Calm,-,N/A,,Clear,0,2013-09-08 06:30:00
11:50 PM,73.4,50.0,44,29.82,10.0,SE,4.6,-,N/A,,Clear,140,2013-09-08 06:50:00